Weather History for KFLO - July, 2013

Change the Weather History Date:

Monday, July 22, 2013

  Actual Average Record
Temperature  
Mean Temperature 82 °F 81 °F  
Max Temperature 90 °F 91 °F 102 °F (1952)
Min Temperature 74 °F 72 °F 62 °F (1965)
Degree Days  
Heating Degree Days 0 0  
Month to date heating degree days 0 0  
Since 1 June heating degree days 0 1  
Since 1 July heating degree days 0 0  
Cooling Degree Days 17 16  
Month to date cooling degree days 354 352  
Year to date cooling degree days 1045 1056  
Since 1 June cooling degree days 778 749  
Growing Degree Days 32 (Base 50)    
Moisture  
Dew Point 72 °F    
Average Humidity 75    
Maximum Humidity 94    
Minimum Humidity 56    
Precipitation  
Precipitation T in 0.18 in 1.82 in (1989)
Month to date precipitation 8.67 3.63  
Year to date precipitation 35.78 23.61  
Sea Level Pressure  
Sea Level Pressure 29.94 in    
Wind  
Wind Speed 8 mph (WSW)    
Max Wind Speed 16 mph    
Max Gust Speed 21 mph    
Visibility 9 miles    
Events      
T = Trace of Precipitation, MM = Missing Value Source: NWS Daily Summary

Daily Weather History Graph

Daily Weather History Graph

Search for Another Location

Airport or City:

Trip Planner

Search our weather history database for the weather conditions in past years. The results will help you decide how hot, cold, wet, or windy it might be!

Date:

Astronomy

Jul. 22, 2013 Rise Set
Actual Time 6:23 AM EDT 8:27 PM EDT
Civil Twilight 5:54 AM EDT 8:55 PM EDT
Nautical Twilight 5:20 AM EDT 9:29 PM EDT
Astronomical Twilight 4:43 AM EDT 10:06 PM EDT
Moon 8:16 PM EDT (7/22) 6:14 AM EDT (7/22)
Length of Visible Light 15h 00m
Length of Day
14h 04m
Full, 100% of the Moon is Illuminated
Jul 22
Full
Jul 22
Full
Jul 29
Last Quarter
Aug 6
New
Aug 14
First Quarter

Hourly Weather History & Observations

Time (EDT) Temp. Heat Index Dew Point Humidity Pressure Visibility Wind Dir Wind Speed Gust Speed Precip Events Conditions
12:53 AM 75.9 °F - 72.0 °F 87% 29.96 in 10.0 mi West 4.6 mph - 0.00 in   Clear
1:53 AM 75.0 °F - 72.0 °F 90% 29.95 in 10.0 mi SW 3.5 mph - N/A   Clear
2:53 AM 73.9 °F - 71.1 °F 91% 29.93 in 10.0 mi SW 3.5 mph - N/A   Clear
3:53 AM 73.9 °F - 71.1 °F 91% 29.92 in 10.0 mi Calm Calm - N/A   Partly Cloudy
4:09 AM 73.4 °F - 71.6 °F 94% 29.93 in 10.0 mi Calm Calm - N/A   Mostly Cloudy
4:53 AM 75.0 °F - 72.0 °F 90% 29.92 in 10.0 mi SW 4.6 mph - N/A   Overcast
5:53 AM 75.0 °F - 73.0 °F 94% 29.94 in 9.0 mi WSW 5.8 mph - N/A   Overcast
6:32 AM 75.2 °F - 73.4 °F 94% 29.96 in 2.0 mi WSW 5.8 mph - 0.00 in   Overcast
6:50 AM 75.2 °F - 73.4 °F 94% 29.96 in 5.0 mi WSW 4.6 mph - 0.00 in   Overcast
6:53 AM 75.0 °F - 73.0 °F 94% 29.96 in 6.0 mi WSW 3.5 mph - 0.00 in   Overcast
7:07 AM 75.2 °F - 73.4 °F 94% 29.97 in 6.0 mi SW 3.5 mph - N/A   Overcast
7:53 AM 75.9 °F - 73.0 °F 91% 29.96 in 8.0 mi WSW 6.9 mph - N/A   Overcast
8:04 AM 77.0 °F - 73.4 °F 89% 29.97 in 9.0 mi SW 8.1 mph - N/A   Overcast
8:15 AM 77.0 °F - 73.4 °F 89% 29.97 in 10.0 mi Variable 4.6 mph - N/A   Mostly Cloudy
8:26 AM 78.8 °F - 73.4 °F 83% 29.97 in 10.0 mi WSW 9.2 mph - N/A   Mostly Cloudy
8:53 AM 79.0 °F - 72.0 °F 79% 29.97 in 10.0 mi West 6.9 mph - N/A   Scattered Clouds
9:00 AM 80.6 °F 84.6 °F 71.6 °F 74% 29.98 in 10.0 mi WSW 10.4 mph 17.3 mph N/A   Mostly Cloudy
9:53 AM 81.0 °F 85.2 °F 72.0 °F 74% 29.98 in 10.0 mi WNW 6.9 mph - N/A   Mostly Cloudy
10:53 AM 82.9 °F 88.0 °F 72.0 °F 69% 29.98 in 10.0 mi Variable 5.8 mph - N/A   Mostly Cloudy
11:03 AM 82.4 °F 87.2 °F 71.6 °F 70% 29.98 in 10.0 mi WSW 6.9 mph - N/A   Partly Cloudy
11:10 AM 82.4 °F 87.2 °F 71.6 °F 70% 29.98 in 10.0 mi West 8.1 mph - N/A   Mostly Cloudy
11:53 AM 86.0 °F 93.0 °F 73.0 °F 65% 29.97 in 10.0 mi West 11.5 mph - N/A   Mostly Cloudy
12:00 PM 84.2 °F 89.6 °F 71.6 °F 66% 29.98 in 10.0 mi West 6.9 mph - N/A   Mostly Cloudy
12:10 PM 84.2 °F 89.6 °F 71.6 °F 66% 29.98 in 10.0 mi West 12.7 mph 19.6 mph N/A   Mostly Cloudy
12:18 PM 84.2 °F 89.6 °F 71.6 °F 66% 29.98 in 10.0 mi West 10.4 mph - N/A   Mostly Cloudy
12:53 PM 86.0 °F 93.0 °F 73.0 °F 65% 29.96 in 10.0 mi WSW 11.5 mph - N/A   Mostly Cloudy
1:00 PM 84.2 °F 90.9 °F 73.4 °F 70% 29.97 in 10.0 mi West 10.4 mph - N/A   Mostly Cloudy
1:15 PM 87.8 °F 95.6 °F 73.4 °F 62% 29.96 in 10.0 mi West 13.8 mph - N/A   Mostly Cloudy
1:53 PM 87.1 °F 94.5 °F 73.0 °F 63% 29.94 in 10.0 mi West 10.4 mph - N/A   Mostly Cloudy
2:53 PM 88.0 °F 95.6 °F 73.0 °F 61% 29.93 in 10.0 mi West 8.1 mph - N/A   Scattered Clouds
3:53 PM 90.0 °F 96.9 °F 72.0 °F 55% 29.91 in 10.0 mi WSW 11.5 mph 17.3 mph N/A   Partly Cloudy
4:53 PM 89.1 °F 97.0 °F 73.0 °F 59% 29.89 in 10.0 mi WSW 11.5 mph - N/A   Partly Cloudy
5:53 PM 88.0 °F 95.6 °F 73.0 °F 61% 29.89 in 10.0 mi SW 11.5 mph - N/A   Mostly Cloudy
6:53 PM 88.0 °F 94.7 °F 72.0 °F 59% 29.88 in 10.0 mi SW 12.7 mph - N/A   Clear
7:53 PM 84.9 °F 90.7 °F 72.0 °F 65% 29.88 in 10.0 mi SW 6.9 mph - N/A   Clear
8:53 PM 82.0 °F 86.3 °F 71.1 °F 69% 29.87 in 10.0 mi SSW 6.9 mph - N/A   Clear
9:53 PM 80.1 °F 83.8 °F 72.0 °F 76% 29.88 in 10.0 mi SW 6.9 mph - N/A   Clear
10:53 PM 80.1 °F 83.6 °F 71.1 °F 74% 29.89 in 10.0 mi SW 6.9 mph - N/A   Clear
11:53 PM 80.1 °F 83.8 °F 72.0 °F 76% 29.89 in 10.0 mi SW 11.5 mph - N/A   Clear